Regional Weather Roundup
Issued by NWS

Home | Current Version | Previous Version | Graphics & Text | Print | Product List | Glossary On
Versions: 1 2 3 4 5 6 7 8 9 10 11 12 13 14 15 16 17 18 19 20 21 22 23 24 25 26 27 28 29 30 31 32 33 34 35 36 37 38 39 40 41 42 43 44 45 46 47 48 49 50
000
ASUS45 KBOU 250907
RWRCO

WEATHER ROUNDUP FOR COLORADO
NATIONAL WEATHER SERVICE DENVER/BOULDER CO
300 AM MDT WED MAY 25 2016

NOTE: "FAIR" INDICATES FEW OR NO CLOUDS BELOW 12000 FEET WITH NO
SIGNIFICANT WEATHER AND/OR OBSTRUCTIONS TO VISIBILITY.

COZ001>005-013-030-031-251000-
...NORTHWEST COLORADO...

CITY           SKY/WX    TMP DP  RH WIND       PRES   REMARKS
CRAIG          CLOUDY    46  40  79 CALM      30.05F
HAYDEN         FAIR      45  34  65 W3        30.07R
MEEKER         MOCLDY    47  37  68 E6        30.04F
MOUNT WERNER   NOT AVBL
STEAMBOAT SPGS FAIR      42  31  66 CALM      30.06R
WALDEN         FAIR      34  27  75 S3        30.09R
$$

COZ006>008-011-251000-
...WEST CENTRAL VALLEYS...

CITY           SKY/WX    TMP DP  RH WIND       PRES   REMARKS
GRAND JUNCTION FAIR      53  28  38 NE7       29.97R
MONTROSE       FAIR      55  18  23 SW8       30.03S
EAGLE          CLOUDY    48  23  37 CALM      30.03S
RIFLE          FAIR      56  30  37 W5        29.99R
DELTA          FAIR      59  24  25 W9        29.99R
NUCLA          FAIR      54  19  26 W6        30.08R
$$

COZ017>023-064>068-251000-
...SOUTHWEST COLORADO...

CITY           SKY/WX    TMP DP  RH WIND       PRES   REMARKS
DURANGO        FAIR      38  20  48 E5        30.10S
CORTEZ         FAIR      55  22  27 S12       30.06S
PAGOSA SPRINGS FAIR      40  17  39 CALM      30.16S
TELLURIDE      MOCLDY    46  12  25 SW5       30.20R
WOLF CREEK PAS FAIR      28  10  47 SW15G22   30.32S WCI  17
$$

COZ009-010-012-014-032>034-037-058>063-251000-
...CENTRAL COLORADO...

CITY           SKY/WX    TMP DP  RH WIND       PRES   REMARKS
ASPEN          MOCLDY    51  17  26 VRB6G17   30.05R
BUENA VISTA    FAIR      40  14  34 E5        30.09R
COPPER MTN     NOT AVBL
BERTHOUD PASS  FAIR      28  19  69 W17G26    30.22S WCI  16
COTTONWOOD PAS FAIR      46   7  19 W12G20    30.15F
GUNNISON       FAIR      37  23  56 CALM      30.11S
KREMMLING      FAIR      39  27  60 CALM      30.06S
LEADVILLE      FAIR      34  13  41 E5        30.14S WCI  30
MONARCH PASS   FAIR      32  12  43 W18       30.36S WCI  20
SALIDA         FAIR      46  15  28 W8        30.14S
SUNLIGHT       FAIR      34  27  75 CALM      30.20R
WILKERSON PASS FAIR      34   9  35 SW12G20   30.21F WCI  25
$$

COZ069>075-251000-
...SAN LUIS VALLEY/SANGRE DE CRISTO MOUNTAINS...

CITY           SKY/WX    TMP DP  RH WIND       PRES   REMARKS
ALAMOSA        FAIR      40  18  41 S9        30.09S
LA VETA PASS   FAIR      41  10  28 S15G30    30.18S
SAGUACHE       FAIR      36  18  48 CALM      30.10S
$$

COZ035-036-038>040-251000-
...NORTHERN COLORADO FRONT RANGE...

CITY           SKY/WX    TMP DP  RH WIND       PRES   REMARKS
DENVER INTL AP FAIR      51  44  77 N8        29.92R
DMNS CITY PARK   N/A     50  47  88 N8G17     29.93R
AURORA         PTCLDY    48  46  91 N2        29.94R
FRONT RANGE AP NOT AVBL
ERIE MUNI ARPT FAIR      44  43  95 CALM      29.93R
BOULDER MUN AP FAIR      50  39  66 S3        29.94R
CENTENNIAL     FAIR      50  43  77 NE8G20    29.94R
BROOMFIELD     FAIR      50  45  81 NW6       29.95R
FORT COLLINS   FAIR      45  36  70 N5        29.92R
LONGMONT       FAIR      47  41  79 CALM      29.95R
$$

COZ041-046-047-076>085-087-088-251000-
...PIKES PEAK/PALMER DIVIDE AND SOUTHERN FOOTHILLS...

CITY           SKY/WX    TMP DP  RH WIND       PRES   REMARKS
COLO. SPRINGS  FAIR      59  11  15 W8        29.95S
A. F. ACADEMY  FAIR      59   9  13 W9G24     29.95S
SCHRIEVER AFB  NOT AVBL
ELLICOTT       FAIR     N/A N/A N/A CALM      29.92S
FALCON         FAIR      51  13  22 W13       29.98F
FORT CARSON    FAIR      52  19  26 N2        29.92R
LIMON          FAIR      47  44  90 W12       29.90R
MONUMENT HILL  FAIR      43  21  42 S5        30.00R
TRINIDAD       FAIR      47  22  37 NW9       29.95F
$$

COZ042>045-048>051-090-091-251000-
...NORTHEAST COLORADO...

CITY           SKY/WX    TMP DP  RH WIND       PRES   REMARKS
GREELEY ARPT   FAIR      46  37  71 N7        29.91R
AKRON          CLOUDY    54  52  93 NE7       29.88R
BURLINGTON     FOG       55  53  93 W13       29.80S VSB 1/4
WRAY           CLOUDY    59  54  82 NE18      29.83R
STERLING       CLOUDY    54  52  94 E3        29.86R
HOLYOKE        CLOUDY    59  52  77 E17       29.81F
FORT MORGAN    MOCLDY    55  46  72 NE6       29.88S
$$

COZ086-089-092>099-251000-
...SOUTHEAST COLORADO...

CITY           SKY/WX    TMP DP  RH WIND       PRES   REMARKS
PUEBLO         FAIR      51  25  36 NW9       29.86S
LA JUNTA       FAIR      59  23  25 W16       29.84R
LAMAR          FAIR      47  34  60 S9        29.79S
SPRINGFIELD      N/A     56  29  35 W10       29.85R
$$



USA.gov is the U.S. government's official web portal to all federal, state and local government web resources and services.